TimeCST,TemperatureF,Dew PointF,Humidity,Sea Level PressureIn,VisibilityMPH,Wind Direction,Wind SpeedMPH,Gust SpeedMPH,PrecipitationIn,Events,Conditions,WindDirDegrees,DateUTC
12:15 AM,41.5,30.6,65,30.16,10.0,South,5.8,-,N/A,,Scattered Clouds,180,2012-12-14 06:15:00
12:35 AM,41.5,30.7,65,30.15,10.0,South,4.6,-,N/A,,Clear,180,2012-12-14 06:35:00
12:55 AM,40.3,30.2,67,30.15,10.0,South,3.5,-,N/A,,Clear,180,2012-12-14 06:55:00
1:15 AM,39.0,30.0,70,30.16,10.0,South,3.5,-,N/A,,Clear,180,2012-12-14 07:15:00
1:35 AM,40.8,30.6,67,30.16,10.0,South,3.5,-,N/A,,Clear,180,2012-12-14 07:35:00
1:55 AM,40.5,29.8,66,30.16,10.0,South,3.5,-,N/A,,Clear,180,2012-12-14 07:55:00
2:15 AM,40.1,29.8,67,30.16,10.0,South,3.5,-,N/A,,Clear,190,2012-12-14 08:15:00
2:35 AM,40.5,30.2,67,30.17,10.0,South,4.6,-,N/A,,Clear,190,2012-12-14 08:35:00
2:55 AM,40.3,30.0,67,30.16,10.0,South,3.5,-,N/A,,Clear,190,2012-12-14 08:55:00
3:15 AM,39.2,30.0,70,30.16,10.0,South,3.5,-,N/A,,Clear,180,2012-12-14 09:15:00
3:35 AM,36.5,28.9,74,30.16,10.0,SSE,3.5,-,N/A,,Clear,160,2012-12-14 09:35:00
3:55 AM,36.5,28.6,73,30.16,10.0,SSE,3.5,-,N/A,,Clear,160,2012-12-14 09:55:00
4:15 AM,36.7,28.4,72,30.16,10.0,Calm,Calm,-,N/A,,Clear,0,2012-12-14 10:15:00
4:35 AM,35.4,28.2,75,30.16,10.0,Calm,Calm,-,N/A,,Clear,0,2012-12-14 10:35:00
4:55 AM,33.3,27.0,78,30.16,10.0,Calm,Calm,-,N/A,,Scattered Clouds,0,2012-12-14 10:55:00
5:15 AM,33.6,27.5,78,30.16,10.0,Calm,Calm,-,N/A,,Scattered Clouds,0,2012-12-14 11:15:00
5:35 AM,32.7,26.4,78,30.16,10.0,Calm,Calm,-,N/A,,Unknown,0,2012-12-14 11:35:00
5:55 AM,32.4,27.5,82,30.16,10.0,Calm,Calm,-,N/A,,Unknown,0,2012-12-14 11:55:00
6:15 AM,32.2,27.3,82,30.15,10.0,Calm,Calm,-,N/A,,Unknown,0,2012-12-14 12:15:00
6:35 AM,32.9,27.5,81,30.16,10.0,Calm,Calm,-,N/A,,Unknown,0,2012-12-14 12:35:00
6:55 AM,32.5,27.3,81,30.16,10.0,Calm,Calm,-,N/A,,Unknown,0,2012-12-14 12:55:00
7:15 AM,32.7,27.5,81,30.16,10.0,Calm,Calm,-,N/A,,Unknown,0,2012-12-14 13:15:00
7:35 AM,32.0,27.1,82,30.16,10.0,Calm,Calm,-,N/A,,Unknown,0,2012-12-14 13:35:00
7:55 AM,32.7,27.7,82,30.17,10.0,Calm,Calm,-,N/A,,Unknown,0,2012-12-14 13:55:00
8:15 AM,33.6,28.6,82,30.18,10.0,Calm,Calm,-,N/A,,Unknown,0,2012-12-14 14:15:00
8:35 AM,37.6,31.1,77,30.17,10.0,Calm,Calm,-,N/A,,Unknown,0,2012-12-14 14:35:00
8:55 AM,40.1,31.1,70,30.18,10.0,Calm,Calm,-,N/A,,Unknown,0,2012-12-14 14:55:00
9:15 AM,42.1,30.7,64,30.18,10.0,Calm,Calm,-,N/A,,Unknown,0,2012-12-14 15:15:00
9:35 AM,43.7,31.6,63,30.19,10.0,Calm,Calm,-,N/A,,Clear,0,2012-12-14 15:35:00
9:55 AM,45.5,31.5,58,30.19,10.0,Calm,Calm,-,N/A,,Clear,0,2012-12-14 15:55:00
10:15 AM,47.5,30.9,53,30.18,10.0,SSW,3.5,-,N/A,,Clear,200,2012-12-14 16:15:00
10:35 AM,48.6,30.0,49,30.18,10.0,SSW,3.5,-,N/A,,Clear,200,2012-12-14 16:35:00
10:55 AM,49.6,29.7,46,30.16,10.0,South,3.5,-,N/A,,Clear,190,2012-12-14 16:55:00
11:15 AM,51.1,29.8,44,30.15,10.0,SSW,3.5,-,N/A,,Clear,200,2012-12-14 17:15:00
11:35 AM,51.8,28.8,41,30.14,10.0,SW,3.5,-,N/A,,Clear,220,2012-12-14 17:35:00
11:55 AM,52.7,28.9,40,30.13,10.0,Calm,Calm,-,N/A,,Clear,0,2012-12-14 17:55:00
12:15 PM,53.8,28.9,39,30.12,10.0,SW,3.5,-,N/A,,Clear,220,2012-12-14 18:15:00
12:35 PM,54.3,28.9,38,30.11,10.0,SSW,3.5,-,N/A,,Clear,210,2012-12-14 18:35:00
12:55 PM,54.9,28.4,36,30.10,10.0,SW,3.5,-,N/A,,Clear,230,2012-12-14 18:55:00
1:15 PM,55.2,28.8,36,30.10,10.0,SSW,3.5,-,N/A,,Clear,210,2012-12-14 19:15:00
1:35 PM,56.1,29.8,37,30.09,10.0,Calm,Calm,-,N/A,,Clear,0,2012-12-14 19:35:00
1:55 PM,57.2,31.6,38,30.08,10.0,ESE,6.9,-,N/A,,Clear,120,2012-12-14 19:55:00
2:15 PM,56.1,31.3,39,30.07,10.0,ESE,6.9,-,N/A,,Clear,120,2012-12-14 20:15:00
2:35 PM,56.3,31.8,39,30.07,10.0,SE,8.1,-,N/A,,Clear,140,2012-12-14 20:35:00
2:55 PM,55.8,32.0,41,30.07,10.0,SE,6.9,-,N/A,,Clear,130,2012-12-14 20:55:00
3:15 PM,55.0,32.0,42,30.07,10.0,SE,4.6,-,N/A,,Clear,140,2012-12-14 21:15:00
3:35 PM,54.3,32.9,44,30.06,10.0,SE,5.8,-,N/A,,Clear,130,2012-12-14 21:35:00
3:55 PM,53.2,34.0,48,30.07,10.0,ESE,4.6,-,N/A,,Clear,120,2012-12-14 21:55:00
4:15 PM,52.5,35.1,51,30.07,10.0,ESE,6.9,-,N/A,,Clear,120,2012-12-14 22:15:00
4:35 PM,52.3,35.6,53,30.05,10.0,ESE,6.9,-,N/A,,Clear,110,2012-12-14 22:35:00
4:55 PM,51.8,36.0,55,30.06,10.0,ESE,6.9,-,N/A,,Clear,110,2012-12-14 22:55:00
5:15 PM,51.4,36.5,57,30.06,10.0,ESE,9.2,-,N/A,,Clear,120,2012-12-14 23:15:00
5:35 PM,51.8,36.9,57,30.05,10.0,ESE,9.2,-,N/A,,Clear,110,2012-12-14 23:35:00
5:55 PM,51.3,36.3,57,30.05,10.0,ESE,6.9,-,N/A,,Unknown,110,2012-12-14 23:55:00
6:15 PM,50.0,37.9,63,30.06,10.0,ESE,9.2,-,N/A,,Unknown,110,2012-12-15 00:15:00
6:35 PM,50.0,39.2,66,30.05,10.0,ESE,9.2,-,N/A,,Unknown,110,2012-12-15 00:35:00
6:55 PM,49.5,39.6,69,30.05,10.0,ESE,10.4,-,N/A,,Unknown,110,2012-12-15 00:55:00
7:15 PM,49.1,39.6,70,30.05,10.0,ESE,6.9,-,N/A,,Unknown,120,2012-12-15 01:15:00
7:35 PM,47.3,39.6,74,30.05,10.0,SE,3.5,-,N/A,,Unknown,140,2012-12-15 01:35:00
7:55 PM,46.9,39.4,75,30.05,10.0,SE,3.5,-,N/A,,Unknown,130,2012-12-15 01:55:00
8:15 PM,46.8,39.4,75,30.05,10.0,SE,3.5,-,N/A,,Unknown,130,2012-12-15 02:15:00
8:35 PM,46.4,39.2,76,30.04,10.0,SSE,3.5,-,N/A,,Unknown,160,2012-12-15 02:35:00
8:55 PM,47.1,39.4,74,30.03,10.0,ESE,5.8,-,N/A,,Unknown,120,2012-12-15 02:55:00
9:15 PM,49.1,39.2,69,30.02,10.0,ESE,9.2,-,N/A,,Unknown,110,2012-12-15 03:15:00
9:35 PM,49.1,39.2,69,30.01,10.0,ESE,6.9,-,N/A,,Unknown,120,2012-12-15 03:35:00
9:55 PM,50.0,37.9,63,30.01,10.0,SSE,3.5,-,N/A,,Unknown,150,2012-12-15 03:55:00
10:15 PM,50.9,36.5,58,30.00,10.0,SE,10.4,-,N/A,,Unknown,140,2012-12-15 04:15:00
10:35 PM,50.5,36.7,59,29.99,10.0,ESE,4.6,-,N/A,Rain,Light Rain,120,2012-12-15 04:35:00
10:55 PM,50.4,36.5,59,29.99,10.0,SE,6.9,-,N/A,Rain,Light Rain,130,2012-12-15 04:55:00
11:15 PM,50.0,36.9,61,29.99,10.0,ESE,5.8,-,N/A,,Unknown,110,2012-12-15 05:15:00
11:35 PM,49.5,37.8,64,29.99,10.0,ESE,4.6,-,N/A,Rain,Light Rain,120,2012-12-15 05:35:00
11:55 PM,49.6,37.9,64,29.98,10.0,SE,5.8,-,N/A,,Unknown,140,2012-12-15 05:55:00